When you browse on this site, cookies collect data to enhance your experience and personalize the content and advertising you see.
Visit our Privacy Policy to learn more. By continuing to use the site, you agree to this use of cookies and data.
  • In Czech Republic
  • List of Countries
  • For 7 days
  • Water Temperature
  • Satellite Maps
  • Weather Map
  • Weather Widgets
  • user-avatar
    Login

    Hourly Weather Nazarkino

    Today, 18 February, Monday

    Time Temperature Precipitation Wind Pressure Humidity
    00:00 -6°C° 0 mm 5 mps 739 mmHg 80%
    01:00 -7°C° 0 mm 5 mps 740 mmHg 82%
    02:00 -8°C° 0 mm 4 mps 740 mmHg 86%
    03:00 -8°C° 0 mm 4 mps 741 mmHg 86%
    04:00 -8°C° 0 mm 4 mps 742 mmHg 86%
    05:00 -8°C° 0 mm 4 mps 743 mmHg 86%
    06:00 -8°C° 0 mm 4 mps 743 mmHg 85%
    07:00 -8°C° 0 mm 5 mps 744 mmHg 85%
    08:00 -8°C° 0 mm 5 mps 745 mmHg 84%
    09:00 -8°C° 0 mm 4 mps 745 mmHg 83%
    10:00 -7°C° 0 mm 4 mps 746 mmHg 82%
    11:00 -7°C° 0 mm 4 mps 747 mmHg 81%
    12:00 -7°C° 0 mm 4 mps 747 mmHg 79%
    13:00 -5°C° 0 mm 4 mps 747 mmHg 77%
    14:00 -5°C° 0 mm 3 mps 747 mmHg 76%
    15:00 -6°C° 0 mm 3 mps 747 mmHg 79%
    16:00 -6°C° 0 mm 2 mps 748 mmHg 83%
    17:00 -7°C° 0 mm 2 mps 748 mmHg 86%
    18:00 -8°C° 0 mm 2 mps 748 mmHg 87%
    19:00 -7°C° 0 mm 1 mps 748 mmHg 88%
    20:00 -8°C° 0 mm 1 mps 748 mmHg 89%
    21:00 -8°C° 0 mm 1 mps 748 mmHg 89%
    22:00 -8°C° 0 mm 1 mps 748 mmHg 88%
    23:00 -8°C° 0 mm 1 mps 748 mmHg 88%

    Tomorrow, 19 February, Tuesday

    Time Temperature Precipitation Wind Pressure Humidity
    00:00 -9°C° 0 mm 2 mps 748 mmHg 88%
    01:00 -9°C° 0 mm 2 mps 748 mmHg 88%
    02:00 -10°C° 0 mm 3 mps 747 mmHg 88%
    03:00 -10°C° 0 mm 3 mps 747 mmHg 87%
    04:00 -10°C° 0 mm 4 mps 746 mmHg 87%
    05:00 -10°C° 0 mm 4 mps 746 mmHg 86%
    06:00 -10°C° 0 mm 5 mps 745 mmHg 83%
    07:00 -10°C° 0 mm 5 mps 745 mmHg 80%
    08:00 -8°C° 0 mm 5 mps 744 mmHg 77%
    09:00 -8°C° 0 mm 6 mps 744 mmHg 76%
    10:00 -6°C° 0 mm 6 mps 743 mmHg 75%
    11:00 -5°C° 0 mm 6 mps 743 mmHg 74%
    12:00 -4°C° 0 mm 6 mps 742 mmHg 74%
    13:00 -3°C° 0 mm 6 mps 742 mmHg 75%
    14:00 -3°C° 0 mm 6 mps 741 mmHg 75%
    15:00 -2°C° 0 mm 5 mps 741 mmHg 76%
    16:00 -4°C° 0 mm 5 mps 740 mmHg 78%
    17:00 -4°C° 0 mm 5 mps 740 mmHg 79%
    18:00 -5°C° 0 mm 5 mps 739 mmHg 82%
    19:00 -5°C° 0 mm 5 mps 739 mmHg 85%
    20:00 -5°C° 0 mm 6 mps 738 mmHg 87%
    21:00 -5°C° 0 mm 6 mps 738 mmHg 88%
    22:00 -4°C° 0 mm 6 mps 737 mmHg 88%
    23:00 -4°C° 0 mm 6 mps 736 mmHg 89%

    Day after tomorrow, 20 February, Wednesday

    Time Temperature Precipitation Wind Pressure Humidity
    00:00 -3°C° 0 mm 6 mps 736 mmHg 89%
    01:00 -3°C° 0 mm 6 mps 735 mmHg 89%
    02:00 -3°C° 0 mm 6 mps 734 mmHg 89%
    03:00 -3°C° 0.1 mm 6 mps 734 mmHg 89%
    04:00 -2°C° 0.1 mm 6 mps 733 mmHg 89%
    05:00 -2°C° 0.1 mm 6 mps 732 mmHg 90%
    06:00 -1°C° 0.1 mm 5 mps 732 mmHg 90%
    07:00 -1°C° 0.1 mm 5 mps 732 mmHg 91%
    08:00 0°C° 0.1 mm 5 mps 732 mmHg 91%
    09:00 0°C° 0 mm 5 mps 732 mmHg 92%
    10:00 0°C° 0 mm 5 mps 732 mmHg 93%
    11:00 0°C° 0 mm 5 mps 732 mmHg 93%
    12:00 0°C° 0.1 mm 5 mps 732 mmHg 92%
    13:00 0°C° 0.1 mm 5 mps 732 mmHg 91%
    14:00 0°C° 0.1 mm 5 mps 732 mmHg 89%
    15:00 0°C° 0 mm 5 mps 732 mmHg 88%
    16:00 -1°C° 0 mm 5 mps 732 mmHg 87%
    17:00 -1°C° 0 mm 5 mps 732 mmHg 85%
    18:00 -1°C° 0 mm 5 mps 731 mmHg 86%
    19:00 -1°C° 0 mm 5 mps 731 mmHg 87%
    20:00 -1°C° 0 mm 5 mps 731 mmHg 87%
    21:00 -1°C° 0.2 mm 5 mps 730 mmHg 88%
    22:00 -1°C° 0.2 mm 5 mps 730 mmHg 88%
    23:00 -1°C° 0.2 mm 5 mps 730 mmHg 88%

    21 February, Thursday

    Time Temperature Precipitation Wind Pressure Humidity
    00:00 -2°C° 0.3 mm 5 mps 730 mmHg 85%
    01:00 -4°C° 0.3 mm 5 mps 730 mmHg 82%
    02:00 -5°C° 0.3 mm 5 mps 730 mmHg 79%
    03:00 -6°C° 0.1 mm 5 mps 730 mmHg 79%
    04:00 -6°C° 0.1 mm 6 mps 731 mmHg 80%
    05:00 -6°C° 0.1 mm 6 mps 731 mmHg 80%
    06:00 -8°C° 0.1 mm 6 mps 731 mmHg 78%
    07:00 -8°C° 0.1 mm 7 mps 732 mmHg 77%
    08:00 -8°C° 0.1 mm 7 mps 732 mmHg 76%
    09:00 -9°C° 0.1 mm 7 mps 733 mmHg 75%
    10:00 -9°C° 0.1 mm 7 mps 733 mmHg 73%
    11:00 -9°C° 0.1 mm 7 mps 733 mmHg 72%
    12:00 -9°C° 0.1 mm 7 mps 734 mmHg 74%
    13:00 -10°C° 0.1 mm 8 mps 734 mmHg 76%
    14:00 -10°C° 0.1 mm 8 mps 735 mmHg 78%
    15:00 -10°C° 0.1 mm 8 mps 735 mmHg 78%
    16:00 -10°C° 0.1 mm 8 mps 736 mmHg 79%
    17:00 -11°C° 0.1 mm 7 mps 737 mmHg 79%
    18:00 -11°C° 0.1 mm 7 mps 738 mmHg 79%
    19:00 -11°C° 0.1 mm 7 mps 739 mmHg 79%
    20:00 -11°C° 0.1 mm 6 mps 740 mmHg 79%
    21:00 -11°C° 0 mm 6 mps 741 mmHg 79%
    22:00 -12°C° 0 mm 6 mps 742 mmHg 78%
    23:00 -12°C° 0 mm 6 mps 743 mmHg 77%

    22 February, Friday

    Time Temperature Precipitation Wind Pressure Humidity
    00:00 -14°C° 0 mm 6 mps 744 mmHg 77%
    01:00 -14°C° 0 mm 6 mps 744 mmHg 77%
    02:00 -15°C° 0 mm 6 mps 745 mmHg 77%
    03:00 -15°C° 0 mm 6 mps 746 mmHg 77%
    04:00 -15°C° 0 mm 6 mps 747 mmHg 78%
    05:00 -16°C° 0 mm 6 mps 747 mmHg 79%
    06:00 -16°C° 0 mm 6 mps 748 mmHg 77%
    07:00 -16°C° 0 mm 6 mps 749 mmHg 76%
    08:00 -16°C° 0 mm 6 mps 750 mmHg 75%
    09:00 -15°C° 0 mm 6 mps 751 mmHg 72%
    10:00 -14°C° 0 mm 6 mps 752 mmHg 69%
    11:00 -12°C° 0 mm 6 mps 752 mmHg 66%
    12:00 -11°C° 0 mm 6 mps 753 mmHg 66%
    13:00 -11°C° 0 mm 6 mps 753 mmHg 66%
    14:00 -11°C° 0 mm 5 mps 753 mmHg 66%
    15:00 -11°C° 0 mm 5 mps 754 mmHg 70%
    16:00 -11°C° 0 mm 4 mps 754 mmHg 75%
    17:00 -11°C° 0 mm 4 mps 755 mmHg 79%
    18:00 -11°C° 0 mm 4 mps 755 mmHg 80%
    19:00 -11°C° 0 mm 4 mps 755 mmHg 82%
    20:00 -12°C° 0 mm 4 mps 756 mmHg 83%
    21:00 -12°C° 0 mm 4 mps 756 mmHg 84%
    22:00 -12°C° 0 mm 4 mps 756 mmHg 84%
    23:00 -12°C° 0 mm 3 mps 756 mmHg 85%

    23 February, Saturday

    Time Temperature Precipitation Wind Pressure Humidity
    00:00 -12°C° 0 mm 3 mps 756 mmHg 86%
    01:00 -13°C° 0 mm 3 mps 756 mmHg 86%
    02:00 -12°C° 0 mm 2 mps 756 mmHg 87%
    03:00 -12°C° 0 mm 2 mps 755 mmHg 87%
    04:00 -12°C° 0 mm 2 mps 755 mmHg 88%
    05:00 -13°C° 0 mm 2 mps 754 mmHg 88%
    06:00 -12°C° 0 mm 2 mps 753 mmHg 85%
    07:00 -10°C° 0 mm 2 mps 753 mmHg 83%
    08:00 -10°C° 0 mm 3 mps 752 mmHg 80%
    09:00 -9°C° 0.3 mm 3 mps 751 mmHg 84%
    10:00 -9°C° 0.3 mm 3 mps 750 mmHg 88%
    11:00 -8°C° 0.3 mm 3 mps 750 mmHg 92%
    12:00 -8°C° 0.2 mm 3 mps 749 mmHg 91%
    13:00 -8°C° 0.2 mm 4 mps 748 mmHg 90%
    14:00 -7°C° 0.2 mm 4 mps 747 mmHg 89%
    15:00 -7°C° 0.2 mm 4 mps 746 mmHg 90%
    16:00 -6°C° 0.2 mm 3 mps 745 mmHg 91%
    17:00 -6°C° 0.2 mm 3 mps 745 mmHg 93%
    18:00 -6°C° 0.6 mm 3 mps 745 mmHg 94%
    19:00 -5°C° 0.6 mm 2 mps 745 mmHg 95%
    20:00 -5°C° 0.6 mm 2 mps 745 mmHg 96%
    21:00 -5°C° 0.1 mm 2 mps 745 mmHg 96%
    22:00 -4°C° 0.1 mm 2 mps 745 mmHg 96%
    23:00 -4°C° 0.1 mm 2 mps 745 mmHg 96%
    Show more